{"data":{"norad_id":61231,"intl_designator":"2024-173E","name":"2024-173E","alt_names":[],"object_type":"PAYLOAD","status":"ACTIVE","operator":null,"country":"PRC","launch_date":"2024-09-24","launch_site_code":"YSLA","launch_vehicle":null,"mission":null,"orbit_class":"UNKNOWN","rcs_meters":null,"size_class":null,"mass_kg":null,"dimensions":null,"purposes":[],"wikipedia_slug":null,"has_3d_model":false,"image_url":null,"decayed_at":null,"tle_current":{"epoch":"2026-05-25T04:10:31.282752Z","epoch_age_seconds":63607,"freshness":"FRESH","line1":"1 61231U 24173E   26145.17397318  .00001184  00000+0  59502-4 0  9995","line2":"2 61231  97.4121 217.7766 0001608  87.9780 272.1638 15.19182978 92268","mean_motion":15.19182978,"eccentricity":0.0001608,"inclination_deg":97.4121,"raan_deg":217.7766,"arg_perigee_deg":87.978,"mean_anomaly_deg":272.1638,"bstar":5.9502e-5,"rev_number":9226,"period_min":94.787791915346,"perigee_km":507.20120385777,"apogee_km":509.41588474482,"semimajor_km":6886.4455443013,"source":"CELESTRAK","updated_at":"2026-05-25T13:38:02.344607Z"}}}